FW3031 Weather Reports


time (UTC)temp
F
wind
direction
speed
knots
gust
knots
rain 1hr
in
rain 24hr
in
rain mn
in
humidity
%
barometer
mb
20260903003539 79 190 0.0 1.7 0.00 0.98 0.04 71 1014.1
20260903003116 79 0 0.0 2.6 0.00 0.97 0.03 69 1011.4
20260903003039 79 190 0.0 2.6 0.00 0.98 0.04 70 1014.0
20260903002539 80 190 0.9 2.6 0.00 0.98 0.04 67 1014.0
20260903002040 80 190 0.9 2.6 0.00 0.98 0.04 66 1014.0
20260903001608 80 190 0.9 3.5 0.00 0.97 0.03 64 1011.5
20260903001540 80 190 0.0 2.6 0.00 0.98 0.04 65 1014.0
20260903001039 80 190 0.0 5.2 0.00 0.98 0.04 68 1014.0
20260903000540 81 190 0.9 5.2 0.00 0.98 0.04 67 1013.9
20260903000107 81 190 2.6 5.2 0.00 0.97 0.03 65 1011.4
20260903000039 81 190 1.7 5.2 0.00 0.98 0.04 66 1013.9
20260902235538 81 190 1.7 5.2 0.00 0.98 0.04 65 1013.8
20260902235038 82 190 1.7 3.5 0.00 0.98 0.04 61 1013.8
20260902234601 82 190 0.9 4.3 0.00 0.97 0.03 59 1011.4
20260902234538 82 190 0.9 3.5 0.00 0.98 0.04 59 1013.9
20260902234037 82 190 0.0 4.3 0.00 0.98 0.04 58 1013.9
20260902233540 82 190 1.7 4.3 0.00 0.98 0.04 57 1013.8
20260902233106 83 190 1.7 3.5 0.00 0.97 0.03 59 1011.3
20260902233037 83 190 0.9 3.5 0.00 0.98 0.04 60 1013.7
20260902232537 83 190 1.7 3.5 0.00 0.98 0.04 59 1013.7
20260902232036 83 190 1.7 3.5 0.00 0.98 0.04 58 1013.7
20260902231606 84 190 1.7 4.3 0.00 0.97 0.03 57 1011.3
20260902231536 83 190 0.9 4.3 0.00 0.98 0.04 58 1013.6
20260902231037 84 190 1.7 4.3 0.00 0.98 0.04 58 1013.5
20260902230537 84 190 0.9 3.5 0.00 0.98 0.04 59 1013.5
20260902230101 85 190 0.0 3.5 0.00 0.97 0.03 58 1011.1
20260902230034 85 190 0.9 3.5 0.00 0.98 0.04 59 1013.5
20260902225534 85 190 0.0 2.6 0.00 0.98 0.04 58 1013.4
20260902225032 84 190 0.0 3.5 0.00 0.98 0.04 58 1013.4
20260902224600 84 190 0.0 4.3 0.00 0.97 0.03 58 1011.1
20260902224532 84 190 0.0 4.3 0.00 0.98 0.04 58 1013.4
20260902224032 84 190 0.0 4.3 0.00 0.98 0.04 59 1013.4
20260902223530 83 190 1.7 4.3 0.00 0.98 0.04 59 1013.4
20260902223131 83 0 0.0 2.6 0.00 0.97 0.03 61 1011.1
20260902223029 83 190 0.0 1.7 0.00 0.98 0.04 61 1013.4
20260902222528 83 190 0.0 2.6 0.00 0.98 0.04 63 1013.5
20260902222028 82 190 0.0 2.6 0.00 0.98 0.04 66 1013.5
20260902221619 82 0 0.9 3.5 0.00 0.97 0.03 65 1011.3
20260902221527 81 190 0.9 2.6 0.00 0.98 0.04 65 1013.5
20260902221026 81 190 0.9 3.5 0.00 0.98 0.04 65 1013.6
20260902220530 81 190 1.7 5.2 0.00 0.98 0.04 64 1013.6
20260902220109 82 190 1.7 5.2 0.00 0.97 0.03 64 1011.4
20260902220026 82 190 1.7 5.2 0.00 0.98 0.04 64 1013.7
20260902215529 83 190 1.7 5.2 0.00 0.98 0.04 64 1013.8
20260902215024 83 190 0.0 2.6 0.00 0.98 0.04 65 1013.9
20260902214614 83 0 0.0 2.6 0.00 0.97 0.03 63 1011.6
20260902214528 83 190 0.0 2.6 0.00 0.98 0.04 63 1014.0
20260902214021 82 190 0.0 3.5 0.00 0.98 0.04 65 1014.1
20260902213520 82 190 0.9 3.5 0.00 0.98 0.04 64 1014.3
20260902213108 82 190 0.0 2.6 0.00 0.97 0.03 64 1012.0
20260902213025 82 190 0.9 2.6 0.00 0.98 0.04 64 1014.4
20260902212518 82 190 0.0 2.6 0.00 0.98 0.04 65 1014.4
20260902212017 81 190 0.0 2.6 0.00 0.98 0.04 67 1014.5
20260902211614 81 0 1.7 2.6 0.00 0.97 0.03 66 1012.4
20260902211518 81 190 0.9 2.6 0.00 0.98 0.04 67 1014.6
20260902211017 80 190 0.0 1.7 0.00 0.98 0.04 66 1014.6
20260902210514 80 190 0.9 3.5 0.00 0.98 0.04 66 1014.6
20260902210106 81 190 0.0 2.6 0.00 0.97 0.03 66 1012.4
20260902210021 80 190 0.0 3.5 0.00 0.98 0.04 68 1014.6
20260902205517 80 190 0.0 2.6 0.00 0.98 0.04 68 1014.7
20260902205012 80 190 0.0 2.6 0.00 0.98 0.04 69 1014.7
20260902204603 80 0 0.9 4.3 0.00 0.97 0.03 66 1012.7
20260902204511 80 190 0.0 4.3 0.00 0.98 0.04 69 1014.9
20260902204010 80 190 0.9 4.3 0.00 0.98 0.04 71 1015.0
20260902203508 80 190 0.0 1.7 0.00 0.98 0.04 67 1015.2
20260902203110 80 0 0.0 1.7 0.00 0.97 0.03 70 1013.1
20260902203007 79 190 0.0 1.7 0.00 0.98 0.04 71 1015.3
20260902202506 79 190 0.0 3.5 0.00 0.98 0.04 69 1015.4
20260902202005 79 190 0.9 3.5 0.00 0.98 0.04 67 1015.6
20260902201634 80 190 0.0 2.6 0.00 0.97 0.03 69 1013.6
20260902201504 80 190 0.0 2.6 0.00 0.98 0.04 70 1015.7
20260902201004 79 190 0.0 1.7 0.00 0.98 0.04 71 1015.9
20260902200502 78 190 0.0 1.7 0.00 0.98 0.04 70 1016.0
20260902200120 79 190 0.0 0.9 0.00 0.97 0.03 69 1013.9
20260902200004 79 190 0.0 0.9 0.00 0.98 0.04 69 1016.1
20260902195600 78 190 0.0 0.0 0.00 0.98 0.04 70 1016.2
20260902195159 78 190 0.0 1.7 0.00 0.98 0.04 73 1016.4
20260902194602 77 0 0.0 2.6 0.00 0.97 0.03 71 1014.3
20260902194557 77 190 0.0 1.7 0.00 0.98 0.04 71 1016.5
20260902194056 77 190 0.0 2.6 0.00 0.98 0.04 74 1016.7
20260902193555 77 190 0.0 1.7 0.00 0.98 0.04 72 1016.7
20260902193108 77 0 0.0 0.0 0.00 0.97 0.03 73 1014.7
20260902193054 77 190 0.0 0.0 0.00 0.98 0.04 73 1016.8
20260902192552 76 190 0.0 0.9 0.00 0.98 0.04 74 1016.9
20260902192056 76 190 0.0 1.7 0.00 0.98 0.04 74 1017.0
20260902191605 76 190 0.0 1.7 0.00 0.97 0.03 74 1014.7
20260902191558 76 190 0.0 1.7 0.00 0.98 0.04 75 1017.0
20260902191050 76 190 0.0 1.7 0.00 0.98 0.04 75 1017.2
20260902190550 76 190 0.0 2.6 0.00 0.98 0.04 74 1017.3
20260902190105 76 0 0.0 2.6 0.00 0.97 0.03 73 1015.1
20260902190053 76 190 0.0 2.6 0.00 0.98 0.04 75 1017.4
20260902185547 76 190 0.0 2.6 0.00 0.98 0.04 74 1017.6
20260902185047 75 190 0.9 2.6 0.00 0.98 0.04 75 1017.6
20260902184600 75 0 0.9 4.3 0.00 0.97 0.03 75 1015.3
20260902184549 75 190 0.0 4.3 0.00 0.98 0.04 76 1017.7
20260902184044 76 190 0.9 4.3 0.00 0.98 0.04 75 1017.9
20260902183543 75 190 0.0 2.6 0.00 0.98 0.04 77 1018.0
20260902183110 75 190 1.7 3.5 0.00 0.97 0.03 77 1015.6
20260902183042 75 190 0.9 3.5 0.00 0.98 0.04 77 1018.1
20260902182541 75 190 0.9 3.5 0.00 0.98 0.04 76 1018.2
20260902182043 75 190 0.9 3.5 0.00 0.98 0.04 78 1018.3
20260902181622 75 190 0.0 4.3 0.00 0.97 0.03 77 1015.9
20260902181541 75 190 0.0 3.5 0.00 0.98 0.04 78 1018.4
20260902181038 75 190 0.9 4.3 0.00 0.98 0.04 78 1018.6
20260902180538 74 190 2.6 5.2 0.00 0.98 0.04 78 1018.7
20260902180104 75 190 2.6 5.2 0.00 0.97 0.03 77 1016.3
20260902180042 75 190 1.7 5.2 0.00 0.98 0.04 77 1018.7
20260902175538 75 190 0.9 5.2 0.00 0.98 0.04 78 1018.8
20260902175037 75 190 0.9 5.2 0.00 0.98 0.04 78 1019.0
20260902174621 75 190 1.7 5.2 0.00 0.97 0.03 77 1016.6
20260902174537 75 190 1.7 4.3 0.00 0.98 0.04 77 1019.1
20260902174037 75 190 0.0 5.2 0.00 0.98 0.04 77 1019.3
20260902173538 74 190 1.7 5.2 0.00 0.98 0.04 77 1019.3
20260902173125 75 190 2.6 5.2 0.00 0.97 0.03 76 1017.0
20260902173039 75 190 0.9 5.2 0.00 0.98 0.04 77 1019.4
20260902172536 75 190 1.7 6.1 0.00 0.98 0.04 76 1019.4
20260902172037 75 190 1.7 6.1 0.00 0.98 0.04 77 1019.5
20260902171630 75 190 2.6 6.1 0.00 0.97 0.03 76 1017.2
20260902171540 75 190 2.6 6.1 0.00 0.98 0.04 76 1019.5
20260902171037 75 190 0.9 5.2 0.00 0.98 0.04 79 1019.5
20260902170534 74 190 1.7 5.2 0.00 0.98 0.04 79 1019.5
20260902170123 74 190 1.7 4.3 0.00 0.97 0.03 79 1017.3
20260902170033 74 190 0.9 5.2 0.00 0.98 0.04 79 1019.6
20260902165533 74 190 2.6 4.3 0.00 0.98 0.04 78 1019.8
20260902165032 74 190 0.0 0.9 0.00 0.98 0.04 78 1019.9
20260902164615 74 0 0.0 2.6 0.00 0.97 0.03 80 1017.6
20260902164534 74 190 0.0 2.6 0.00 0.98 0.04 81 1020.0
20260902164030 73 190 0.0 4.3 0.00 0.98 0.04 80 1020.2
20260902163530 73 190 0.0 4.3 0.00 0.98 0.04 81 1020.2
20260902163103 73 190 0.0 1.7 0.00 0.97 0.03 81 1017.8
20260902163030 73 190 0.0 2.6 0.00 0.98 0.04 82 1020.3
20260902162528 73 190 0.0 0.0 0.00 0.98 0.04 81 1020.4
20260902162031 73 190 0.0 0.0 0.00 0.98 0.04 80 1020.4
20260902161605 73 0 0.0 0.0 0.00 0.97 0.03 79 1018.0
20260902161528 73 190 0.0 0.0 0.00 0.98 0.04 79 1020.5
20260902161028 73 190 0.0 0.0 0.00 0.98 0.04 79 1020.5
20260902160526 72 190 0.0 0.0 0.00 0.98 0.04 79 1020.4
20260902160127 72 190 0.0 0.0 0.00 0.98 0.04 80 1020.3
20260902160109 72 0 0.0 0.0 0.00 0.97 0.03 79 1017.9
20260902155525 72 190 0.0 0.0 0.00 0.98 0.04 80 1020.4
20260902155025 72 190 0.0 0.0 0.00 0.98 0.04 80 1020.4
20260902154618 72 0 0.0 0.9 0.00 0.97 0.03 80 1017.8
20260902154526 72 190 0.0 0.0 0.00 0.98 0.04 80 1020.3
20260902154023 72 190 0.0 0.9 0.00 0.98 0.04 82 1020.3
20260902153524 72 190 0.0 0.9 0.00 0.98 0.04 83 1020.3
20260902153102 72 0 0.0 0.0 0.00 0.97 0.03 81 1017.9
20260902153027 72 190 0.0 0.0 0.00 0.98 0.04 82 1020.3
20260902152522 72 190 0.0 0.0 0.00 0.98 0.04 83 1020.4
20260902152023 72 190 0.0 1.7 0.00 0.98 0.04 83 1020.4
20260902151619 71 0 0.0 1.7 0.00 0.97 0.03 83 1018.1
20260902151521 71 190 0.0 1.7 0.00 0.98 0.04 83 1020.5
20260902151022 71 190 0.0 1.7 0.00 0.98 0.04 83 1020.5
20260902150521 71 190 0.0 1.7 0.00 0.98 0.04 83 1020.4
20260902150110 71 0 0.0 3.5 0.00 0.97 0.03 83 1017.9
20260902150021 71 190 0.0 2.6 0.00 0.98 0.04 83 1020.5
20260902145521 71 190 0.0 3.5 0.00 0.98 0.04 83 1020.5
20260902145024 71 190 0.0 4.3 0.00 0.98 0.04 83 1020.4
20260902144558 71 190 1.7 4.3 0.00 0.97 0.03 83 1018.0
20260902144532 71 190 0.9 4.3 0.00 0.98 0.04 83 1020.4
20260902144019 71 190 0.0 2.6 0.00 0.98 0.04 82 1020.4
20260902143518 71 190 0.9 3.5 0.00 0.98 0.04 83 1020.5
20260902143103 71 190 0.9 4.3 0.00 0.97 0.03 84 1018.0
20260902143018 71 190 0.0 4.3 0.00 0.98 0.04 84 1020.5
20260902142517 71 190 0.9 4.3 0.00 0.98 0.04 84 1020.4
20260902142016 70 190 0.9 4.3 0.00 0.98 0.04 86 1020.3
20260902141602 70 190 0.9 3.5 0.00 0.97 0.03 87 1017.7
20260902141517 70 190 0.9 3.5 0.00 0.98 0.04 88 1020.2
20260902141013 70 190 0.0 3.5 0.00 0.98 0.04 89 1020.1
20260902140512 69 190 0.0 1.7 0.00 0.98 0.04 91 1020.1
20260902140108 69 0 0.0 1.7 0.00 0.97 0.03 90 1017.5
20260902140011 69 190 0.0 1.7 0.00 0.98 0.04 91 1019.9
20260902135510 69 190 0.0 0.0 0.00 0.98 0.04 92 1019.8
20260902135009 68 190 0.0 0.0 0.00 0.98 0.04 93 1019.8
20260902134621 68 0 0.0 0.0 0.00 0.97 0.03 93 1017.3
20260902134511 68 190 0.0 0.0 0.00 0.98 0.04 93 1019.7
20260902134007 68 190 0.0 0.0 0.00 0.98 0.04 93 1019.6
20260902133509 68 190 0.0 0.0 0.00 0.98 0.04 93 1019.6
20260902133105 67 0 0.0 0.0 0.00 0.97 0.03 93 1017.2
20260902133008 67 190 0.0 0.0 0.00 0.98 0.04 93 1019.6
20260902132509 67 190 0.0 0.0 0.00 0.98 0.04 94 1019.4
20260902132008 67 190 0.0 0.0 0.00 0.98 0.04 94 1019.3
20260902131601 67 0 0.0 0.0 0.00 0.97 0.03 94 1016.7
20260902131509 67 190 0.0 0.0 0.00 0.98 0.04 95 1019.2
20260902131007 67 190 0.0 0.0 0.00 0.98 0.04 95 1019.1
20260902130508 67 190 0.0 0.0 0.00 0.98 0.04 95 1019.1
20260902130106 67 0 0.0 0.0 0.00 0.97 0.03 94 1016.5
20260902130006 67 190 0.0 0.0 0.00 0.98 0.04 95 1019.1
20260902125506 66 190 0.0 0.0 0.00 0.98 0.04 95 1019.0
20260902125005 67 190 0.0 0.9 0.00 0.98 0.04 95 1018.9
20260902124608 67 0 0.0 0.9 0.00 0.97 0.03 94 1016.4
20260902124505 66 190 0.0 0.9 0.00 0.98 0.04 95 1018.9
20260902124004 67 190 0.0 0.0 0.00 0.98 0.04 95 1018.9
20260902123504 67 190 0.0 1.7 0.00 0.98 0.04 95 1018.9
20260902123104 67 0 0.0 1.7 0.00 0.97 0.03 94 1016.4
20260902123004 67 190 0.0 1.7 0.00 0.98 0.04 94 1018.8
20260902122504 67 190 0.0 0.9 0.00 0.98 0.04 94 1018.8
20260902122003 67 190 0.0 0.9 0.00 0.98 0.04 94 1018.7
20260902121608 67 190 0.0 0.9 0.00 0.97 0.03 94 1016.3
20260902121503 67 190 0.0 0.9 0.00 0.98 0.04 94 1018.7
20260902121002 67 190 0.0 0.0 0.00 0.98 0.04 94 1018.8
20260902120502 67 190 0.0 0.0 0.00 0.98 0.04 94 1018.8
20260902120109 67 0 0.0 0.0 0.00 0.97 0.03 94 1016.3
20260902120002 67 190 0.0 0.0 0.00 0.98 0.04 94 1018.7
20260902115502 67 190 0.0 0.0 0.00 0.98 0.04 94 1018.7
20260902115002 67 190 0.0 0.0 0.00 0.98 0.04 94 1018.7
20260902114604 67 0 0.0 0.0 0.00 0.97 0.03 94 1016.3
20260902114501 67 190 0.0 0.0 0.00 0.00 0.04 94 1018.6
20260902114001 67 190 0.0 0.0 0.00 0.98 0.04 94 1018.6
20260902113502 67 190 0.0 0.0 0.00 0.98 0.04 94 1018.7
20260902113100 67 0 0.0 0.0 0.00 0.97 0.03 94 1016.3
20260902113001 67 190 0.0 0.0 0.00 0.98 0.04 95 1018.6
20260902112602 67 190 0.0 0.0 0.00 0.98 0.04 94 1018.6
20260902112002 67 190 0.0 0.9 0.00 0.98 0.04 95 1018.7
20260902111613 67 0 0.0 0.9 0.00 0.97 0.03 94 1016.4
20260902111559 67 190 0.0 0.9 0.00 0.98 0.04 94 1018.8
20260902111100 67 190 0.0 0.0 0.00 0.98 0.04 94 1018.7
20260902110600 67 190 0.0 0.0 0.00 0.98 0.04 94 1018.7
20260902110112 67 0 0.0 0.0 0.00 0.97 0.03 94 1016.4
20260902110059 67 190 0.0 0.0 0.00 0.98 0.04 94 1018.6
20260902105601 67 190 0.0 0.0 0.00 0.98 0.04 94 1018.7
20260902105100 67 190 0.0 0.0 0.00 0.98 0.04 94 1018.6
20260902104601 67 0 0.0 0.0 0.00 0.97 0.03 93 1016.4
20260902104058 67 190 0.0 0.0 0.00 0.98 0.04 94 1018.8
20260902103556 67 190 0.0 0.0 0.00 0.98 0.04 94 1018.8
20260902103120 67 0 0.0 0.0 0.00 0.97 0.03 93 1016.5
20260902103103 67 190 0.0 0.0 0.00 0.98 0.04 94 1018.8
20260902102600 67 190 0.0 0.0 0.00 0.98 0.04 94 1018.7
20260902102056 67 190 0.0 0.0 0.00 0.98 0.04 94 1018.7
20260902101616 67 0 0.0 0.0 0.00 0.97 0.03 93 1016.6
20260902101556 67 190 0.0 0.0 0.00 0.98 0.04 94 1018.8
20260902101056 67 190 0.0 0.0 0.00 0.98 0.04 94 1018.8
20260902100557 67 190 0.0 0.0 0.00 0.98 0.04 94 1018.8
20260902100112 67 190 0.0 0.0 0.00 0.98 0.04 94 1018.8
20260902095556 67 190 0.0 0.0 0.00 0.98 0.04 94 1018.8
20260902095054 67 190 0.0 0.9 0.00 0.98 0.04 94 1018.8
20260902094602 67 0 0.0 0.0 0.00 0.97 0.03 93 1016.6
20260902094554 67 190 0.0 0.0 0.00 0.98 0.04 94 1018.7
20260902094054 67 190 0.0 0.0 0.00 0.98 0.04 93 1018.6
20260902093553 67 190 0.0 0.0 0.00 0.98 0.04 93 1018.6
20260902093138 67 0 0.0 0.0 0.00 0.97 0.03 93 1016.4
20260902093053 67 190 0.0 0.0 0.00 0.98 0.04 93 1018.7
20260902092555 67 190 0.0 0.0 0.00 0.98 0.04 94 1018.6
20260902092056 67 190 0.0 0.0 0.00 0.98 0.04 93 1018.7
20260902091607 67 190 0.0 0.0 0.00 0.98 0.04 93 1018.7
20260902091601 67 0 0.0 0.0 0.00 0.97 0.03 92 1016.5
20260902091051 67 190 0.0 0.0 0.00 0.98 0.04 93 1018.8
20260902090551 67 190 0.0 0.0 0.00 0.98 0.04 93 1018.9
20260902090105 67 0 0.0 0.0 0.00 0.97 0.03 92 1016.7
20260902090050 67 190 0.0 0.0 0.00 0.98 0.04 93 1019.0
20260902085552 67 190 0.0 0.0 0.00 0.98 0.04 93 1019.1
20260902085049 67 190 0.0 0.0 0.00 0.98 0.04 93 1019.2
20260902084601 67 0 0.0 0.0 0.00 0.97 0.03 93 1017.0
20260902084549 67 190 0.0 0.0 0.00 0.98 0.04 93 1019.2
20260902084049 67 190 0.0 0.0 0.00 0.98 0.04 93 1019.3
20260902083549 67 190 0.0 0.0 0.00 0.98 0.04 93 1019.3
20260902083100 67 0 0.0 0.0 0.00 0.97 0.03 92 1017.1
20260902083049 67 190 0.0 0.0 0.01 0.98 0.04 93 1019.4
20260902082552 67 190 0.0 0.0 0.01 0.98 0.04 93 1019.3
20260902082049 67 190 0.0 0.0 0.01 0.98 0.04 94 1019.4
20260902081624 67 0 0.0 0.0 0.00 0.97 0.03 93 1017.2
20260902081548 67 190 0.0 0.0 0.01 0.98 0.04 94 1019.5
20260902081048 67 190 0.0 0.0 0.01 0.98 0.04 94 1019.4
20260902080548 67 190 0.0 0.0 0.01 0.98 0.04 93 1019.4
20260902080103 67 190 0.0 0.0 0.01 0.98 0.04 93 1019.4
20260902080100 67 0 0.0 0.0 0.00 0.97 0.03 93 1017.2
20260902075546 67 190 0.0 0.0 0.01 0.98 0.04 93 1019.4
20260902075048 67 190 0.0 0.0 0.01 0.98 0.04 93 1019.2
20260902074607 67 0 0.0 0.0 0.00 0.97 0.03 93 1017.0
20260902074546 67 190 0.0 0.0 0.01 0.98 0.04 93 1019.2
20260902074048 67 190 0.0 0.0 0.01 0.98 0.04 93 1019.1
20260902073545 67 190 0.0 0.0 0.01 0.98 0.04 93 1019.0
20260902073105 67 0 0.0 0.0 0.00 0.96 0.03 93 1017.0
20260902073049 67 190 0.0 0.0 0.00 0.97 0.03 93 1019.1
20260902072545 67 190 0.0 0.0 0.00 0.97 0.03 93 1019.2
20260902072043 67 190 0.0 0.0 0.01 0.97 0.03 93 1019.2
20260902071606 67 0 0.0 0.0 0.00 0.96 0.03 92 1017.2
20260902071556 67 190 0.0 0.0 0.01 0.97 0.03 92 1019.3
20260902071042 67 190 0.0 0.0 0.02 0.97 0.03 93 1019.4
20260902070540 67 190 0.0 1.7 0.02 0.97 0.03 93 1019.5
20260902070104 67 0 0.0 2.6 0.03 0.96 0.03 93 1017.6
20260902070040 67 190 0.0 2.6 0.03 0.97 0.03 93 1019.6
20260902065539 67 190 0.0 2.6 0.05 0.97 0.03 93 1019.7
20260902065038 67 190 0.9 2.6 0.06 0.97 0.03 93 1020.0
20260902064620 67 0 0.0 1.7 0.06 0.96 0.03 92 1018.0
20260902064537 67 190 0.0 1.7 0.06 0.97 0.03 93 1020.1
20260902064036 67 190 0.0 2.6 0.07 0.97 0.03 93 1020.1
20260902063535 67 190 0.0 2.6 0.08 0.97 0.03 93 1020.2
20260902063102 68 190 0.0 1.7 0.08 0.96 0.03 93 1018.2
20260902063043 68 190 0.0 1.7 0.09 0.97 0.03 93 1020.3
20260902062534 68 190 0.0 1.7 0.09 0.97 0.03 93 1020.5
20260902062033 68 190 0.0 1.7 0.09 0.96 0.02 93 1020.6
20260902061606 68 0 0.0 2.6 0.11 0.96 0.02 92 1018.4
20260902061544 68 190 0.0 2.6 0.12 0.96 0.02 93 1020.6
20260902061032 68 190 0.9 2.6 0.13 0.95 0.02 92 1020.7
20260902060532 68 190 0.0 0.0 0.13 0.94 0.01 93 1020.7
20260902060112 68 0 0.0 0.0 0.13 0.93 0.00 92 1018.7
20260902060033 68 190 0.0 0.0 0.14 0.94 0.00 93 1020.9
20260902055530 68 190 0.0 0.0 0.13 0.92 0.92 92 1020.9
20260902055029 68 190 0.0 0.0 0.14 0.91 0.91 93 1020.9
20260902054603 68 0 0.0 0.0 0.14 0.90 0.90 91 1018.7
20260902054535 68 190 0.0 0.0 0.14 0.91 0.91 92 1020.8
20260902054028 68 190 0.0 0.0 0.14 0.90 0.90 92 1020.8
20260902053527 68 190 0.0 0.9 0.15 0.89 0.89 91 1020.7
20260902053059 68 0 0.0 1.7 0.15 0.88 0.88 91 1018.6
20260902053027 68 190 0.0 1.7 0.16 0.88 0.88 91 1020.6
20260902052528 68 190 0.0 0.0 0.15 0.87 0.87 91 1020.5
20260902052025 68 190 0.0 0.0 0.13 0.86 0.86 91 1020.5
20260902051604 68 0 0.0 0.0 0.12 0.84 0.84 91 1018.3
20260902051529 68 190 0.0 0.0 0.13 0.84 0.84 91 1020.4
20260902051024 68 190 0.0 0.0 0.13 0.83 0.83 92 1020.3
20260902050525 68 190 0.0 0.0 0.12 0.81 0.81 92 1020.3
20260902050115 68 0 0.0 0.0 0.11 0.80 0.80 90 1018.2
20260902050031 68 190 0.0 0.0 0.11 0.80 0.80 91 1020.3
20260902045524 69 190 0.0 0.9 0.11 0.79 0.79 91 1020.3
20260902045024 69 190 0.0 0.9 0.09 0.77 0.77 90 1020.3
20260902044610 69 0 0.0 1.7 0.09 0.76 0.76 90 1018.3
20260902044529 69 190 0.0 1.7 0.09 0.76 0.76 90 1020.3
20260902044022 68 190 0.0 1.7 0.09 0.75 0.75 89 1020.1
20260902043521 68 190 0.0 1.7 0.09 0.74 0.74 92 1019.9
20260902043107 68 190 0.0 2.6 0.11 0.72 0.72 92 1018.0
20260902043021 68 190 0.0 2.6 0.11 0.72 0.72 92 1019.9
20260902042521 68 190 1.7 2.6 0.20 0.72 0.72 92 1019.9
20260902042022 68 190 0.0 1.7 0.28 0.72 0.72 93 1019.9
20260902041604 68 0 0.0 0.9 0.44 0.71 0.71 92 1017.9
20260902041530 68 190 0.0 0.9 0.46 0.71 0.71 93 1019.7
20260902041017 68 190 0.0 0.9 0.65 0.70 0.70 92 1019.4
20260902040517 67 190 0.0 0.0 0.65 0.69 0.69 91 1019.3
20260902040113 68 0 0.0 2.6 0.65 0.68 0.68 90 1017.5
20260902040018 67 190 0.0 2.6 0.65 0.69 0.69 91 1019.3
20260902035517 68 190 0.9 2.6 0.65 0.68 0.68 89 1019.3
20260902035016 68 190 0.0 0.9 0.66 0.68 0.68 91 1019.3
20260902034606 68 0 0.0 1.7 0.65 0.66 0.66 90 1017.4
20260902034516 68 190 0.0 1.7 0.65 0.67 0.67 90 1019.2
20260902034020 68 190 0.0 6.1 0.66 0.66 0.66 90 1019.1
20260902033514 68 190 0.0 6.1 0.64 0.64 0.64 89 1019.1
20260902033109 68 0 0.0 7.8 0.61 0.61 0.61 89 1017.3
20260902033014 68 190 0.0 7.8 0.61 0.61 0.61 89 1019.2
20260902032517 68 190 2.6 7.8 0.51 0.51 0.51 87 1019.4
20260902032013 69 190 0.9 6.1 0.43 0.43 0.43 90 1019.3
20260902031605 70 0 0.0 3.5 0.25 0.25 0.25 89 1017.5
20260902031512 70 190 0.0 3.5 0.20 0.20 0.20 88 1019.2
20260902031010 70 190 0.0 6.1 0.06 0.06 0.06 87 1018.7
20260902030509 70 190 1.7 7.8 0.04 0.04 0.04 87 1018.6
20260902030008 71 190 2.6 9.6 0.03 0.03 0.03 85 1018.4
20260902025508 72 190 0.9 13.0 0.02 0.02 0.02 84 1018.1
20260902025007 73 190 2.6 13.0 0.02 0.02 0.02 82 1017.8
20260902024612 74 190 4.3 11.3 0.01 0.01 0.01 79 1016.2
20260902024510 74 190 2.6 11.3 0.01 0.01 0.01 80 1017.8
20260902024006 75 190 1.7 9.6 0.00 0.00 0.00 75 1017.5
20260902023506 76 190 3.5 9.6 0.00 0.00 0.00 71 1017.1
20260902023107 76 190 1.7 8.7 0.00 0.00 0.00 70 1015.2
20260902023015 76 190 1.7 8.7 0.00 0.00 0.00 70 1016.9
20260902022507 76 190 2.6 8.7 0.00 0.00 0.00 69 1016.6
20260902022006 77 190 2.6 7.8 0.00 0.00 0.00 66 1016.3
20260902021605 78 190 2.6 13.0 0.00 0.00 0.00 63 1014.4
20260902021506 78 190 1.7 13.0 0.00 0.00 0.00 63 1016.0
20260902021006 80 190 4.3 13.0 0.00 0.00 0.00 60 1015.8
20260902020507 81 190 3.5 8.7 0.00 0.00 0.00 58 1015.4
20260902020118 82 0 0.9 7.0 0.00 0.00 0.00 56 1013.3
20260902020005 82 190 0.9 5.2 0.00 0.00 0.00 56 1015.0
20260902015506 83 190 0.9 7.0 0.00 0.00 0.00 55 1014.9
20260902015004 83 190 0.0 4.3 0.00 0.00 0.00 52 1014.7
20260902014606 83 190 1.7 4.3 0.00 0.00 0.00 51 1012.7
20260902014504 83 190 1.7 4.3 0.00 0.00 0.00 51 1014.5
20260902014003 84 190 0.0 3.5 0.00 0.00 0.00 50 1014.2
20260902013503 84 190 0.0 1.7 0.00 0.00 0.00 48 1014.0
20260902013106 84 0 0.0 0.0 0.00 0.00 0.00 47 1012.2
20260902013003 84 190 0.0 0.0 0.00 0.00 0.00 48 1013.9
20260902012503 84 190 0.0 2.6 0.00 0.00 0.00 47 1013.7
20260902012003 85 190 0.0 2.6 0.00 0.00 0.00 46 1013.4
20260902011602 85 190 0.0 0.0 0.00 0.00 0.00 46 1011.7
20260902011507 85 190 0.0 0.0 0.00 0.00 0.00 47 1013.3
20260902011003 85 190 0.0 0.0 0.00 0.00 0.00 46 1013.2
20260902010502 85 190 0.0 1.7 0.00 0.00 0.00 46 1013.1
20260902010106 86 190 0.0 4.3 0.00 0.00 0.00 43 1011.6
20260902010005 86 190 0.0 4.3 0.00 0.00 0.00 44 1013.2
20260902005502 86 190 0.0 4.3 0.00 0.00 0.00 44 1013.1
20260902005002 86 190 0.0 1.7 0.00 0.00 0.00 44 1012.9
20260902004609 86 190 0.0 2.6 0.00 0.00 0.00 43 1011.2
20260902004502 86 190 0.0 2.6 0.00 0.00 0.00 43 1012.8
20260902004002 86 190 0.9 2.6 0.00 0.00 0.00 43 1012.7